Time,TemperatureF,DewpointF,PressureIn,WindDirection,WindDirectionDegrees,WindSpeedMPH,WindSpeedGustMPH,Humidity,HourlyPrecipIn,Conditions,Clouds,dailyrainin,SolarRadiationWatts/m^2,SoftwareType,DateUTC
2013-08-18 00:01:00,67.0,60.0,-100.00,North,5,0.0,7.0,79,0.00,,,0.00,0.000000,,2013-08-18 06:01:00,
2013-08-18 00:11:00,67.0,60.0,-100.00,North,5,0.0,7.0,79,0.00,,,0.00,0.000000,,2013-08-18 06:11:00,
2013-08-18 00:42:00,67.0,60.0,-100.00,NW,325,2.0,5.0,77,0.00,,,0.00,0.000000,,2013-08-18 06:42:00,
2013-08-18 00:52:00,67.0,60.0,-100.00,NW,325,2.0,5.0,77,0.00,,,0.00,0.000000,,2013-08-18 06:52:00,
2013-08-18 01:01:00,67.0,60.0,-100.00,NW,325,2.0,5.0,77,0.00,,,0.00,0.000000,,2013-08-18 07:01:00,
2013-08-18 01:11:00,67.0,60.0,-100.00,NW,325,2.0,5.0,77,0.00,,,0.00,0.000000,,2013-08-18 07:11:00,
2013-08-18 01:42:00,66.0,58.0,-100.00,NE,35,4.0,6.0,75,0.00,,,0.00,0.000000,,2013-08-18 07:42:00,
2013-08-18 01:52:00,66.0,58.0,-100.00,NE,35,4.0,6.0,75,0.00,,,0.00,0.000000,,2013-08-18 07:52:00,
2013-08-18 02:01:00,66.0,58.0,-100.00,NE,35,4.0,6.0,75,0.00,,,0.00,0.000000,,2013-08-18 08:01:00,
2013-08-18 02:12:00,66.0,58.0,-100.00,NE,35,4.0,6.0,75,0.00,,,0.00,0.000000,,2013-08-18 08:12:00,
2013-08-18 02:42:00,67.0,57.0,-100.00,NNW,343,2.0,7.0,70,0.00,,,0.00,0.000000,,2013-08-18 08:42:00,
2013-08-18 02:52:00,67.0,57.0,-100.00,NNW,343,2.0,7.0,70,0.00,,,0.00,0.000000,,2013-08-18 08:52:00,
2013-08-18 03:01:00,67.0,57.0,-100.00,NNW,343,2.0,7.0,70,0.00,,,0.00,0.000000,,2013-08-18 09:01:00,
2013-08-18 03:11:00,67.0,57.0,-100.00,NNW,343,2.0,7.0,70,0.00,,,0.00,0.000000,,2013-08-18 09:11:00,
2013-08-18 03:43:00,65.0,56.0,-100.00,NNE,18,1.0,6.0,73,0.00,,,0.00,0.000000,,2013-08-18 09:43:00,
2013-08-18 03:53:00,65.0,56.0,-100.00,NNE,18,1.0,6.0,73,0.00,,,0.00,0.000000,,2013-08-18 09:53:00,
2013-08-18 04:03:00,65.0,56.0,-100.00,NNE,18,1.0,6.0,73,0.00,,,0.00,0.000000,,2013-08-18 10:03:00,
2013-08-18 04:13:00,65.0,56.0,-100.00,NNE,18,1.0,6.0,73,0.00,,,0.00,0.000000,,2013-08-18 10:13:00,
2013-08-18 04:43:00,71.0,54.0,-100.00,NW,317,4.0,14.0,56,0.00,,,0.00,0.000000,,2013-08-18 10:43:00,
2013-08-18 04:52:00,71.0,54.0,-100.00,NW,317,4.0,14.0,56,0.00,,,0.00,0.000000,,2013-08-18 10:52:00,
2013-08-18 05:02:00,71.0,54.0,-100.00,NW,317,4.0,14.0,56,0.00,,,0.00,0.000000,,2013-08-18 11:02:00,
2013-08-18 05:11:00,71.0,54.0,-100.00,NW,317,4.0,14.0,56,0.00,,,0.00,0.000000,,2013-08-18 11:11:00,
2013-08-18 05:42:00,64.0,56.0,-100.00,WNW,291,4.0,6.0,74,0.00,,,0.00,0.000000,,2013-08-18 11:42:00,
2013-08-18 05:52:00,64.0,56.0,-100.00,WNW,291,4.0,6.0,74,0.00,,,0.00,0.000000,,2013-08-18 11:52:00,
2013-08-18 06:01:00,64.0,56.0,-100.00,WNW,291,4.0,6.0,74,0.00,,,0.00,0.000000,,2013-08-18 12:01:00,
2013-08-18 06:11:00,64.0,56.0,-100.00,WNW,291,4.0,6.0,74,0.00,,,0.00,0.000000,,2013-08-18 12:11:00,
2013-08-18 06:42:00,62.0,55.0,-100.00,NW,325,4.0,8.0,79,0.00,,,0.00,2.000000,,2013-08-18 12:42:00,
2013-08-18 06:52:00,62.0,55.0,-100.00,NW,325,4.0,8.0,79,0.00,,,0.00,2.000000,,2013-08-18 12:52:00,
2013-08-18 07:01:00,62.0,55.0,-100.00,NW,325,4.0,8.0,79,0.00,,,0.00,2.000000,,2013-08-18 13:01:00,
2013-08-18 07:11:00,62.0,55.0,-100.00,NW,325,4.0,8.0,79,0.00,,,0.00,2.000000,,2013-08-18 13:11:00,
2013-08-18 07:42:00,66.0,58.0,-100.00,NNW,327,6.0,11.0,76,0.00,,,0.00,64.000000,,2013-08-18 13:42:00,
2013-08-18 07:52:00,66.0,58.0,-100.00,NNW,327,6.0,11.0,76,0.00,,,0.00,64.000000,,2013-08-18 13:52:00,
2013-08-18 08:02:00,66.0,58.0,-100.00,NNW,327,6.0,11.0,76,0.00,,,0.00,64.000000,,2013-08-18 14:02:00,
2013-08-18 08:11:00,66.0,58.0,-100.00,NNW,327,6.0,11.0,76,0.00,,,0.00,64.000000,,2013-08-18 14:11:00,
2013-08-18 08:42:00,73.0,62.0,-100.00,NNW,333,2.0,7.0,68,0.00,,,0.00,217.000000,,2013-08-18 14:42:00,
2013-08-18 08:53:00,73.0,62.0,-100.00,NNW,333,2.0,7.0,68,0.00,,,0.00,217.000000,,2013-08-18 14:53:00,
2013-08-18 09:01:00,73.0,62.0,-100.00,NNW,333,2.0,7.0,68,0.00,,,0.00,217.000000,,2013-08-18 15:01:00,
2013-08-18 09:11:00,73.0,62.0,-100.00,NNW,333,2.0,7.0,68,0.00,,,0.00,217.000000,,2013-08-18 15:11:00,
2013-08-18 09:43:00,78.0,58.0,-100.00,SSE,150,1.0,3.0,51,0.00,,,0.00,371.000000,,2013-08-18 15:43:00,
2013-08-18 09:54:00,78.0,58.0,-100.00,SSE,150,1.0,3.0,51,0.00,,,0.00,371.000000,,2013-08-18 15:54:00,
2013-08-18 10:03:00,78.0,58.0,-100.00,SSE,150,1.0,3.0,51,0.00,,,0.00,371.000000,,2013-08-18 16:03:00,
2013-08-18 10:13:00,78.0,58.0,-100.00,SSE,150,1.0,3.0,51,0.00,,,0.00,371.000000,,2013-08-18 16:13:00,
2013-08-18 10:42:00,77.0,64.0,-100.00,ENE,64,4.0,7.0,64,0.00,,,0.00,282.000000,,2013-08-18 16:42:00,
2013-08-18 10:52:00,77.0,64.0,-100.00,ENE,64,4.0,7.0,64,0.00,,,0.00,282.000000,,2013-08-18 16:52:00,
2013-08-18 11:02:00,77.0,64.0,-100.00,ENE,64,4.0,7.0,64,0.00,,,0.00,282.000000,,2013-08-18 17:02:00,
2013-08-18 11:13:00,77.0,64.0,-100.00,ENE,64,4.0,7.0,64,0.00,,,0.00,282.000000,,2013-08-18 17:13:00,
2013-08-18 11:43:00,75.0,65.0,-100.00,NE,39,7.0,19.0,70,0.00,,,0.00,330.000000,,2013-08-18 17:43:00,
2013-08-18 11:52:00,75.0,65.0,-100.00,NE,39,7.0,19.0,70,0.00,,,0.00,330.000000,,2013-08-18 17:52:00,
2013-08-18 12:02:00,75.0,65.0,-100.00,NE,39,7.0,19.0,70,0.00,,,0.00,330.000000,,2013-08-18 18:02:00,
2013-08-18 12:12:00,75.0,65.0,-100.00,NE,39,7.0,19.0,70,0.00,,,0.00,330.000000,,2013-08-18 18:12:00,
2013-08-18 12:42:00,76.0,61.0,-100.00,NNE,32,13.0,20.0,59,0.00,,,0.00,321.000000,,2013-08-18 18:42:00,
2013-08-18 12:52:00,76.0,61.0,-100.00,NNE,32,13.0,20.0,59,0.00,,,0.00,321.000000,,2013-08-18 18:52:00,
2013-08-18 13:01:00,76.0,61.0,-100.00,NNE,32,13.0,20.0,59,0.00,,,0.00,321.000000,,2013-08-18 19:01:00,
2013-08-18 13:11:00,76.0,61.0,-100.00,NNE,32,13.0,20.0,59,0.00,,,0.00,321.000000,,2013-08-18 19:11:00,
2013-08-18 13:42:00,73.0,62.0,-100.00,NNW,339,5.0,20.0,69,0.00,,,0.00,115.000000,,2013-08-18 19:42:00,
2013-08-18 13:52:00,73.0,62.0,-100.00,NNW,339,5.0,20.0,69,0.00,,,0.00,115.000000,,2013-08-18 19:52:00,
2013-08-18 14:02:00,73.0,62.0,-100.00,NNW,339,5.0,20.0,69,0.00,,,0.00,115.000000,,2013-08-18 20:02:00,
2013-08-18 14:12:00,73.0,62.0,-100.00,NNW,339,5.0,20.0,69,0.00,,,0.00,115.000000,,2013-08-18 20:12:00,
2013-08-18 14:42:00,79.0,64.0,-100.00,East,89,6.0,16.0,60,0.00,,,0.00,618.000000,,2013-08-18 20:42:00,
2013-08-18 14:52:00,79.0,64.0,-100.00,East,89,6.0,16.0,60,0.00,,,0.00,618.000000,,2013-08-18 20:52:00,
2013-08-18 15:01:00,79.0,64.0,-100.00,East,89,6.0,16.0,60,0.00,,,0.00,618.000000,,2013-08-18 21:01:00,
2013-08-18 15:11:00,79.0,64.0,-100.00,East,89,6.0,16.0,60,0.00,,,0.00,618.000000,,2013-08-18 21:11:00,
2013-08-18 15:42:00,81.0,63.0,-100.00,SSE,161,4.0,13.0,55,0.00,,,0.00,704.000000,,2013-08-18 21:42:00,
2013-08-18 15:53:00,81.0,63.0,-100.00,SSE,161,4.0,13.0,55,0.00,,,0.00,704.000000,,2013-08-18 21:53:00,
2013-08-18 16:03:00,81.0,63.0,-100.00,SSE,161,4.0,13.0,55,0.00,,,0.00,704.000000,,2013-08-18 22:03:00,
2013-08-18 16:13:00,81.0,63.0,-100.00,SSE,161,4.0,13.0,55,0.00,,,0.00,704.000000,,2013-08-18 22:13:00,
2013-08-18 16:42:00,83.0,64.0,-100.00,South,181,2.0,13.0,52,0.00,,,0.00,672.000000,,2013-08-18 22:42:00,
2013-08-18 16:52:00,83.0,64.0,-100.00,South,181,2.0,13.0,52,0.00,,,0.00,672.000000,,2013-08-18 22:52:00,
2013-08-18 17:02:00,83.0,64.0,-100.00,South,181,2.0,13.0,52,0.00,,,0.00,672.000000,,2013-08-18 23:02:00,
2013-08-18 17:11:00,83.0,64.0,-100.00,South,181,2.0,13.0,52,0.00,,,0.00,672.000000,,2013-08-18 23:11:00,
2013-08-18 17:42:00,78.0,64.0,-100.00,ENE,70,5.0,8.0,63,0.00,,,0.00,237.000000,,2013-08-18 23:42:00,
2013-08-18 17:52:00,78.0,64.0,-100.00,ENE,70,5.0,8.0,63,0.00,,,0.00,237.000000,,2013-08-18 23:52:00,
2013-08-18 18:03:00,78.0,64.0,-100.00,ENE,70,5.0,8.0,63,0.00,,,0.00,237.000000,,2013-08-19 00:03:00,
2013-08-18 18:11:00,78.0,64.0,-100.00,ENE,70,5.0,8.0,63,0.00,,,0.00,237.000000,,2013-08-19 00:11:00,
2013-08-18 18:42:00,81.0,65.0,-100.00,SSW,194,4.0,8.0,58,0.00,,,0.00,241.000000,,2013-08-19 00:42:00,
2013-08-18 18:52:00,81.0,65.0,-100.00,SSW,194,4.0,8.0,58,0.00,,,0.00,241.000000,,2013-08-19 00:52:00,
2013-08-18 19:02:00,81.0,65.0,-100.00,SSW,194,4.0,8.0,58,0.00,,,0.00,241.000000,,2013-08-19 01:02:00,
2013-08-18 19:11:00,81.0,65.0,-100.00,SSW,194,4.0,8.0,58,0.00,,,0.00,241.000000,,2013-08-19 01:11:00,
2013-08-18 19:42:00,77.0,64.0,-100.00,SW,230,2.0,10.0,64,0.00,,,0.00,140.000000,,2013-08-19 01:42:00,
2013-08-18 19:52:00,77.0,64.0,-100.00,SW,230,2.0,10.0,64,0.00,,,0.00,140.000000,,2013-08-19 01:52:00,
2013-08-18 20:06:00,77.0,64.0,-100.00,SW,230,2.0,10.0,64,0.00,,,0.00,140.000000,,2013-08-19 02:06:00,
2013-08-18 20:11:00,77.0,64.0,-100.00,SW,230,2.0,10.0,64,0.00,,,0.00,140.000000,,2013-08-19 02:11:00,
2013-08-18 21:11:00,69.0,63.0,-100.00,NW,305,4.0,5.0,81,0.00,,,0.00,10.000000,,2013-08-19 03:11:00,
2013-08-18 21:42:00,69.0,61.0,-100.00,WNW,300,5.0,7.0,76,0.00,,,0.00,0.000000,,2013-08-19 03:42:00,
2013-08-18 21:53:00,69.0,61.0,-100.00,WNW,300,5.0,7.0,76,0.00,,,0.00,0.000000,,2013-08-19 03:53:00,
2013-08-18 22:03:00,69.0,61.0,-100.00,WNW,300,5.0,7.0,76,0.00,,,0.00,0.000000,,2013-08-19 04:03:00,
2013-08-18 22:12:00,69.0,61.0,-100.00,WNW,300,5.0,7.0,76,0.00,,,0.00,0.000000,,2013-08-19 04:12:00,
2013-08-18 22:42:00,71.0,62.0,-100.00,SE,126,3.0,6.0,73,0.00,,,0.00,0.000000,,2013-08-19 04:42:00,
2013-08-18 22:53:00,71.0,62.0,-100.00,SE,126,3.0,6.0,73,0.00,,,0.00,0.000000,,2013-08-19 04:53:00,
2013-08-18 23:02:00,71.0,62.0,-100.00,SE,126,3.0,6.0,73,0.00,,,0.00,0.000000,,2013-08-19 05:02:00,
2013-08-18 23:11:00,71.0,62.0,-100.00,SE,126,3.0,6.0,73,0.00,,,0.00,0.000000,,2013-08-19 05:11:00,
2013-08-18 23:42:00,76.0,63.0,-100.00,West,268,9.0,14.0,64,0.00,,,0.00,0.000000,,2013-08-19 05:42:00,
2013-08-18 23:52:00,76.0,63.0,-100.00,West,268,9.0,14.0,64,0.00,,,0.00,0.000000,,2013-08-19 05:52:00,